Wind_Speed
17 18 17 16 15 14 14 14 13 13 12 12 11 10 9 9 9 9 10 9 9 8 8 8 8 8 7 8 8 8 9 9 9 10 10 10 11 11 12 12 10 10
17 18 19 18 17 15 15 14 14 13 13 12 11 11 10 9 9 9 9 9 9 8 8 8 9 8 8 8 8 8 9 9 9 9 10 10 11 11 12 12 11 11
17 19 19 19 18 17 16 16 15 14 13 13 12 11 10 10 9 9 9 9 8 8 7 7 8 9 9 9 9 8 9 10 10 9 10 11 11 11 11 11 11 10
18 18 19 20 19 19 18 17 16 15 14 13 13 12 12 11 10 10 9 9 9 8 7 7 7 7 8 9 8 9 9 9 10 10 10 12 11 11 12 11 11 10
18 18 19 20 21 21 20 18 18 17 16 14 14 13 13 11 11 10 10 10 10 9 9 8 7 7 7 8 8 9 8 8 9 10 10 11 11 12 12 12 11 11
19 18 19 21 22 21 20 19 18 18 17 16 15 14 13 12 11 11 10 10 10 10 10 10 9 8 7 7 8 9 9 8 9 9 9 10 11 12 13 12 12 12
20 19 19 21 22 22 21 20 20 19 18 17 16 15 13 13 12 12 11 11 11 11 11 11 10 9 9 8 8 9 9 9 8 8 9 10 10 11 11 12 13 13
21 21 20 21 22 22 22 22 21 20 19 19 18 16 15 14 13 13 12 12 12 12 12 12 11 10 10 10 9 9 9 9 9 9 9 9 10 10 10 11 12 12
21 22 21 21 22 22 23 23 22 21 20 20 19 17 16 15 15 14 13 13 13 13 12 12 12 11 11 11 11 10 10 10 10 9 9 9 10 10 10 11 11 11
20 22 22 22 22 22 23 23 23 23 22 21 20 19 18 17 16 16 15 14 14 14 14 13 13 12 12 12 12 12 11 11 11 10 10 10 9 9 10 10 11 11
20 21 22 23 23 23 22 23 23 23 23 22 22 21 20 19 18 17 17 16 16 15 15 15 15 14 14 13 13 12 13 13 12 12 11 10 10 9 10 10 10 11
22 21 21 22 22 22 22 22 23 23 23 23 22 22 22 21 20 19 18 17 16 17 17 16 16 16 15 15 14 14 14 14 14 13 13 12 11 11 11 10 11 11
25 23 21 21 22 22 22 22 23 23 23 23 22 23 23 22 21 20 20 18 16 17 18 17 17 17 16 16 16 16 16 15 15 14 14 14 13 13 12 12 12 12
27 27 26 24 22 22 22 22 23 23 23 22 22 23 23 22 21 20 20 20 18 17 17 18 18 18 18 17 17 17 16 16 16 16 15 15 15 14 14 13 13 13
29 32 31 30 28 26 24 23 22 22 22 22 22 22 22 23 23 22 21 21 20 19 19 19 19 19 19 18 17 17 16 16 16 16 16 16 16 16 16 16 16 15
26 30 32 32 33 33 29 25 23 22 22 22 22 22 21 22 23 23 23 21 20 21 21 20 20 19 19 18 18 17 17 17 17 17 17 17 17 17 17 18 17 17
26 29 31 31 32 33 33 30 26 24 22 22 23 22 21 21 22 23 24 24 22 21 22 22 21 20 19 19 19 18 18 18 19 18 18 18 19 18 18 18 19 18
30 29 28 28 29 31 30 29 29 28 26 24 24 24 23 22 22 22 24 24 24 23 22 22 22 22 21 19 19 20 20 20 20 21 21 20 20 20 19 19 19 19
30 29 29 29 29 29 29 28 29 30 30 28 25 23 23 23 24 23 23 23 25 26 25 23 21 22 23 22 20 20 21 22 22 23 23 22 21 21 20 20 19 19
31 31 31 31 31 31 32 32 30 31 33 33 31 27 24 24 24 24 24 23 24 26 27 26 23 22 22 22 21 20 20 22 23 24 25 25 23 22 21 20 20 20
31 32 32 32 34 34 35 35 34 34 36 37 36 34 31 28 26 26 26 25 24 25 26 27 26 25 23 22 21 20 20 21 23 25 26 26 25 24 23 21 21 20
30 31 32 33 35 36 36 37 37 35 35 33 31 31 32 31 29 28 27 28 28 27 27 27 27 26 26 25 23 21 20 21 23 25 27 27 27 26 25 23 22 22
29 29 30 32 35 36 37 38 37 36 34 32 29 29 29 29 29 28 28 29 29 29 29 29 27 27 27 26 25 23 22 23 23 25 26 28 28 27 26 26 25 24
29 30 30 31 33 35 36 36 35 34 34 33 32 32 30 29 30 30 29 28 28 29 29 30 29 28 28 27 27 26 25 25 25 25 26 28 29 29 29 29 28 27
24 28 30 31 33 35 37 36 33 31 32 32 32 33 32 31 32 33 33 32 31 29 29 30 29 29 29 29 29 29 28 28 27 28 29 28 28 29 30 31 31 30
17 21 25 28 30 32 34 34 32 30 30 30 31 33 33 33 34 34 34 34 34 32 31 31 30 29 30 31 31 31 31 30 31 31 31 30 30 31 31 32 32 32
Wind_Direction
212 208 204 203 198 193 190 188 187 186 182 181 183 184 184 183 180 174 172 172 175 176 179 184 187 187 187 188 192 190 183 182 181 179 180 180 180 180 179 181 181 179
219 214 210 207 203 199 196 194 192 191 189 187 187 188 189 190 191 184 177 176 177 175 177 184 189 192 193 194 195 196 193 191 189 185 183 186 187 186 185 185 188 190
224 219 214 212 207 204 203 200 197 196 194 193 191 190 192 194 197 196 190 188 186 181 179 179 185 191 195 198 196 196 197 197 199 195 188 192 194 194 194 192 193 197
227 224 218 215 211 208 208 205 202 200 199 200 198 195 196 197 200 201 202 202 197 194 191 185 184 188 194 198 197 199 202 202 204 202 196 198 201 202 202 200 201 204
229 227 222 219 214 211 211 209 206 204 203 203 203 204 201 200 200 201 205 207 206 204 201 198 195 195 197 198 198 202 205 207 208 206 203 202 204 209 210 207 208 211
229 228 225 222 218 215 213 212 211 209 208 207 206 208 207 203 202 203 206 209 211 210 206 204 204 205 208 206 205 207 205 205 211 213 213 210 209 213 216 215 215 217
229 229 227 224 222 218 214 215 215 212 213 213 211 211 211 210 207 207 211 214 214 213 209 209 209 209 215 217 214 215 209 205 209 213 217 219 218 219 221 222 222 221
227 230 229 227 225 221 217 216 217 215 216 218 218 216 214 215 215 214 216 221 221 218 213 211 214 215 219 222 222 222 217 212 210 210 215 222 225 225 225 226 226 223
228 228 229 229 227 224 220 218 218 219 220 222 222 222 220 219 221 222 223 226 228 226 222 218 218 221 223 224 225 227 225 221 219 218 220 225 228 229 229 229 230 229
230 230 229 230 230 227 224 222 221 220 221 225 225 226 225 224 225 227 228 232 233 231 229 228 225 225 227 227 226 229 229 227 227 229 228 229 228 228 231 233 232 232
223 229 231 231 231 230 228 226 225 224 222 223 227 229 229 228 228 231 231 233 237 236 234 233 231 230 230 230 229 229 230 230 230 232 232 231 230 230 232 233 234 233
215 221 230 233 233 231 230 229 228 228 226 224 224 229 232 231 231 234 235 233 233 237 239 237 236 235 233 232 232 231 231 232 232 233 235 234 231 231 234 237 236 235
219 215 220 229 235 233 230 230 231 232 232 228 225 226 231 235 234 234 238 237 234 235 240 240 239 239 237 235 234 233 233 235 234 235 237 238 234 233 235 238 238 238
225 220 213 214 225 234 233 230 230 233 236 236 232 227 229 235 239 237 237 238 239 238 239 242 241 240 240 237 237 238 237 236 237 238 239 240 239 238 238 239 240 240
229 229 221 210 208 220 232 234 232 232 235 239 239 235 231 232 237 242 240 237 238 239 241 242 241 240 241 241 241 243 245 244 243 244 246 246 244 243 242 242 243 243
227 231 234 226 212 209 215 224 232 235 236 238 240 240 237 233 232 239 245 243 237 235 238 242 242 240 241 243 245 246 249 252 253 252 252 253 252 249 247 247 247 247
229 232 238 239 230 219 212 210 217 228 236 240 241 240 240 239 234 233 240 246 246 239 234 237 244 247 244 242 244 248 251 253 257 259 257 256 258 257 254 252 252 252
240 240 241 238 235 234 227 215 211 217 226 233 239 240 238 240 240 237 235 240 246 248 243 237 240 247 250 246 242 245 250 253 256 259 260 259 259 259 260 258 256 256
243 245 244 239 233 233 234 227 220 219 222 225 232 239 240 239 240 242 241 239 242 248 251 248 241 241 247 250 247 244 246 250 254 257 259 260 260 259 259 260 259 259
242 243 242 239 235 234 233 231 227 225 224 223 222 228 237 241 242 243 244 245 245 248 253 256 255 248 245 248 250 249 247 249 252 255 256 258 259 259 257 257 257 257
245 245 243 239 238 238 237 234 231 227 226 224 219 218 223 230 237 242 245 247 249 250 252 256 260 260 257 254 251 250 249 249 251 254 256 257 258 258 259 257 256 256
250 250 248 245 243 242 241 241 240 237 237 236 231 226 225 228 232 236 241 246 249 251 254 256 258 261 262 263 261 257 253 250 249 252 255 257 258 259 260 260 259 258
246 249 251 251 248 245 243 244 246 247 248 248 246 243 239 239 241 241 242 244 246 248 252 255 258 260 262 264 265 264 261 256 253 252 254 257 260 261 262 261 260 260
239 243 248 251 251 249 247 247 248 250 251 250 249 249 248 247 247 248 249 249 247 246 249 252 254 257 259 261 263 264 264 262 260 258 257 257 259 261 263 264 263 262
237 237 240 245 250 252 252 249 247 246 247 247 248 251 254 254 251 248 248 250 251 251 252 253 254 254 255 257 259 260 262 263 264 264 262 261 260 261 262 263 264 265
239 238 238 240 245 250 251 249 247 243 242 245 248 248 251 254 253 251 251 251 253 255 256 259 260 258 255 254 254 255 258 260 262 263 264 265 265 264 263 263 263 263
Height
3221 3223 3224 3225 3226 3227 3228 3229 3230 3231 3232 3233 3234 3235 3236 3237 3238 3239 3240 3241 3241 3242 3243 3244 3245 3246 3247 3248 3248 3249 3250 3251 3252 3253 3254 3255 3256 3257 3258 3259 3260 3260
3220 3222 3223 3224 3225 3227 3228 3229 3230 3230 3231 3232 3233 3235 3236 3237 3238 3239 3240 3241 3241 3242 3243 3244 3245 3246 3247 3248 3248 3249 3250 3251 3252 3253 3254 3255 3256 3257 3257 3258 3259 3260
3219 3221 3222 3224 3225 3226 3227 3228 3229 3230 3231 3231 3232 3234 3235 3236 3237 3238 3239 3240 3241 3242 3243 3243 3244 3245 3246 3247 3248 3249 3249 3250 3251 3252 3253 3254 3255 3256 3257 3258 3259 3259
3218 3220 3221 3223 3224 3225 3226 3227 3228 3229 3230 3231 3231 3233 3234 3235 3236 3237 3238 3239 3240 3241 3242 3243 3244 3244 3245 3246 3247 3248 3249 3250 3250 3251 3252 3254 3255 3256 3256 3257 3258 3259
3218 3219 3220 3222 3223 3224 3225 3226 3227 3228 3229 3230 3231 3231 3233 3234 3235 3236 3237 3239 3239 3240 3241 3242 3243 3244 3244 3245 3246 3247 3248 3249 3250 3251 3252 3253 3254 3255 3256 3256 3257 3258
3217 3219 3220 3221 3222 3223 3224 3225 3226 3227 3228 3229 3230 3231 3232 3233 3234 3235 3237 3238 3239 3239 3240 3241 3242 3243 3244 3244 3245 3246 3247 3248 3249 3250 3251 3252 3253 3254 3255 3255 3256 3257
3217 3218 3219 3220 3221 3222 3223 3224 3225 3226 3227 3228 3228 3229 3231 3232 3233 3234 3235 3237 3237 3238 3239 3240 3241 3242 3243 3244 3245 3245 3246 3247 3248 3249 3250 3251 3252 3253 3254 3255 3255 3256
3217 3218 3219 3219 3220 3221 3222 3223 3224 3225 3226 3226 3227 3228 3229 3231 3232 3233 3234 3235 3236 3237 3238 3239 3240 3241 3242 3243 3244 3244 3245 3246 3247 3248 3249 3250 3251 3251 3253 3253 3254 3255
3217 3218 3219 3219 3219 3220 3221 3222 3223 3224 3225 3225 3226 3227 3228 3229 3230 3232 3233 3234 3235 3236 3237 3238 3239 3240 3241 3242 3243 3244 3244 3245 3246 3247 3248 3249 3250 3250 3251 3252 3253 3254
3217 3218 3218 3219 3219 3220 3220 3221 3222 3223 3224 3225 3225 3226 3227 3228 3229 3230 3232 3233 3234 3235 3236 3237 3238 3239 3240 3241 3242 3243 3244 3244 3245 3246 3247 3248 3248 3249 3250 3251 3252 3252
3215 3217 3218 3218 3219 3219 3220 3220 3221 3221 3222 3223 3224 3225 3225 3226 3227 3228 3230 3231 3232 3234 3235 3236 3237 3238 3239 3240 3241 3242 3242 3243 3244 3245 3245 3246 3247 3248 3249 3250 3251 3252
3213 3215 3217 3219 3219 3219 3219 3219 3219 3219 3220 3221 3222 3223 3224 3225 3226 3227 3228 3230 3231 3232 3233 3234 3235 3236 3237 3238 3239 3240 3241 3242 3243 3243 3244 3245 3246 3247 3248 3249 3250 3250
3213 3213 3215 3218 3220 3219 3219 3219 3219 3218 3218 3219 3221 3222 3222 3223 3224 3225 3226 3228 3230 3231 3232 3233 3234 3234 3235 3236 3237 3238 3239 3240 3241 3242 3243 3244 3245 3245 3246 3247 3248 3249
3212 3213 3213 3214 3218 3221 3220 3218 3218 3218 3217 3217 3218 3220 3221 3221 3222 3224 3225 3226 3227 3229 3230 3231 3232 3233 3234 3234 3235 3236 3237 3239 3240 3241 3242 3242 3243 3244 3244 3245 3246 3247
3209 3213 3214 3211 3211 3216 3220 3220 3218 3217 3217 3217 3217 3218 3219 3220 3221 3221 3223 3224 3226 3227 3228 3229 3230 3231 3232 3233 3234 3235 3236 3237 3238 3239 3240 3241 3241 3242 3243 3243 3244 3245
3207 3212 3216 3214 3209 3208 3212 3216 3218 3217 3216 3216 3216 3216 3217 3219 3220 3220 3221 3222 3223 3225 3226 3227 3227 3229 3230 3231 3232 3233 3234 3235 3236 3237 3238 3238 3239 3240 3241 3241 3242 3243
3205 3207 3211 3214 3214 3211 3208 3210 3214 3217 3216 3215 3215 3215 3216 3216 3218 3219 3220 3220 3221 3222 3224 3225 3225 3227 3228 3230 3231 3232 3232 3233 3234 3234 3235 3236 3237 3238 3239 3239 3240 3241
3203 3205 3207 3209 3213 3215 3214 3211 3211 3213 3214 3214 3213 3213 3214 3215 3216 3217 3218 3219 3219 3220 3221 3223 3224 3225 3226 3227 3229 3230 3231 3231 3232 3232 3233 3234 3235 3235 3236 3237 3238 3239
3199 3201 3203 3204 3206 3209 3212 3212 3210 3210 3210 3211 3211 3212 3212 3213 3214 3215 3217 3218 3218 3218 3219 3220 3222 3223 3223 3225 3226 3228 3229 3229 3229 3230 3230 3231 3232 3233 3234 3235 3236 3237
3195 3196 3197 3200 3201 3202 3204 3206 3206 3206 3206 3206 3207 3209 3210 3211 3213 3214 3214 3216 3217 3217 3218 3218 3219 3220 3221 3222 3223 3225 3226 3227 3227 3228 3228 3228 3229 3230 3231 3232 3233 3234
3191 3193 3194 3196 3197 3197 3199 3200 3199 3199 3199 3198 3199 3202 3204 3206 3209 3211 3212 3213 3214 3215 3215 3216 3216 3217 3218 3219 3221 3223 3224 3225 3225 3225 3225 3226 3227 3228 3229 3230 3231 3232
3187 3189 3190 3191 3192 3192 3194 3195 3196 3196 3197 3198 3201 3204 3204 3204 3206 3207 3209 3210 3211 3212 3212 3213 3214 3215 3216 3217 3218 3220 3222 3223 3223 3223 3224 3224 3225 3226 3227 3227 3228 3229
3183 3185 3186 3186 3187 3188 3189 3191 3193 3196 3198 3200 3202 3204 3206 3206 3205 3204 3204 3205 3206 3207 3208 3210 3211 3213 3214 3215 3216 3217 3219 3220 3221 3222 3222 3222 3223 3224 3225 3225 3226 3226
3179 3180 3181 3181 3182 3184 3185 3187 3190 3194 3197 3198 3199 3200 3201 3203 3203 3202 3203 3203 3203 3204 3206 3207 3209 3210 3211 3212 3214 3215 3216 3217 3218 3219 3220 3220 3221 3222 3222 3223 3223 3224
3176 3176 3177 3178 3179 3180 3183 3186 3189 3191 3192 3194 3196 3197 3198 3198 3198 3199 3200 3201 3202 3204 3204 3205 3206 3207 3209 3210 3211 3212 3213 3215 3216 3216 3217 3218 3219 3219 3220 3220 3220 3221
3173 3174 3174 3175 3176 3178 3181 3184 3186 3187 3188 3190 3191 3192 3193 3194 3194 3195 3197 3198 3200 3201 3201 3203 3204 3205 3205 3205 3207 3209 3211 3212 3213 3213 3213 3214 3215 3216 3216 3216 3217 3217